Regional Weather Roundup
Issued by NWS State College, PA

Home | Current Version | Previous Version | Text Only | Print | Product List | Glossary On
Versions: 1 2 3 4 5 6 7 8 9 10 11 12 13 14 15 16 17 18 19 20 21 22 23 24 25 26 27 28 29 30 31 32 33 34 35 36 37 38 39 40 41 42 43 44 45 46 47 48 49 50
000
ASUS41 KCTP 280110
RWRCTP

REGIONAL WEATHER ROUNDUP
NATIONAL WEATHER SERVICE STATE COLLEGE PA
900 PM EDT WED MAY 27 2015

Note: "fair" indicates few or no clouds below 12,000 feet with no
significant weather and/or obstructions to visibility.

* = STATION THAT DOES NOT REPORT PRECIPITATION /E.G. RAIN...SNOW...ETC/
    THUNDER OR FOG.

PAZ002>004-007>009-013>016-020>023-029>032-280200-
WESTERN PENNSYLVANIA

CITY           SKY/WX    TMP DP  RH WIND       PRES   REMARKS
ERIE           CLOUDY    64  60  87 SW6       30.05F
MEADVILLE      LGT RAIN  63  59  87 E3        30.09F
FRANKLIN*      CLOUDY    70  57  64 N6        30.11S
NEW CASTLE     FAIR      74  62  66 CALM      30.08S
BEAVER COUNTY  CLEAR     73  61  64 S6        30.09S
BUTLER*        CLEAR     73  61  64 S6        30.11F
PITTSBURGH INT PTCLDY    76  62  62 S6        30.09F
PITTSBURGH     PTCLDY    74  58  57 S7        30.09F
INDIANA*       CLEAR     72  63  73 SW3       30.15S
LATROBE        CLEAR     73  63  68 SW9       30.17R
WASHINGTON CO* PTCLDY    70  63  78 S3        30.12F
$$

PAZ004>006-010>012-017>019-024>028-033>037-041-042-045-046-049>053-280200-
CENTRAL PENNSYLVANIA

CITY           SKY/WX    TMP DP  RH WIND       PRES   REMARKS
BRADFORD       PTCLDY    70  59  68 SW5       30.11S
DUBOIS         CLEAR     71  58  63 SW5       30.11S
CLEARFIELD     CLEAR     73  58  59 S5        30.11F
JOHNSTOWN      CLEAR     70  58  65 SW6       30.16F
ALTOONA        CLEAR     71  60  68 S6        30.14S
STATE COLLEGE  CLEAR     72  61  68 SW5       30.11S
WILLIAMSPORT   PTCLDY    77  63  61 S8        30.06R
SELINSGROVE    PTCLDY    75  67  76 S5        30.10R
FT INDIANTOWN  PTCLDY    68  68 100 N2        30.13R FOG
CAPITAL CITY   PTCLDY    72  66  81 SE6       30.11R
HARRISBURG     PTCLDY    72  66  81 SE6       30.11R
YORK           PTCLDY    69  67  93 CALM      30.13R
$$

PAZ038>040-043-044-047-048-054-055-060>062-067>071-280200-
EASTERN PENNSYLVANIA

CITY           SKY/WX    TMP DP  RH WIND       PRES   REMARKS
SCRANTON       PTCLDY    70  66  87 CALM      30.12R
MOUNT POCONO   MOCLDY    65  62  90 W5        30.18R FOG
ALLENTOWN      PTCLDY    69  67  93 CALM      30.13R
QUAKERTOWN*    MOCLDY    70  70 100 CALM      30.15R
READING        PTCLDY    70  68  93 CALM      30.12R
LANCASTER      MOCLDY    70  65  84 CALM      30.12R
COATESVILLE    PTCLDY    70  70 100 CALM      30.15R
POTTSTOWN      PTCLDY    69  69 100 CALM      30.15R
BLUE BELL      CLOUDY    72  70  94 CALM      30.14R
DOYLESTOWN     CLOUDY    69  69 100 VRB3      30.14R
WILLOW GROVE   NOT AVBL
NORTH PHILA    CLOUDY    75  67  76 SW6       30.15R
PHILADELPHIA   CLOUDY    74  69  85 S5        30.15R
$$



USA.gov is the U.S. government's official web portal to all federal, state and local government web resources and services.